EWS-G1 (GOES 13) [+]

Last updated on June 19, 2021, 11:20 a.m. UTC

1 29155U 06018A   21169.50465941  .00000046  00000-0  00000-0 0  9990
2 29155   0.1158 258.6601 0003790 286.2698 325.1122  1.00267814 25087
UTC
Height (km)
Latitude
Longitude
Inclination
Orbital Period
UTC large
Height (km)
Speed (km/s)
/
Latitude / Longitude
Inclination (degrees)
Orbital Period (minutes)
Azimuth
Elevation
Range (km)
Doppler Factor
iOS Compass Heading
iOS Angle

Next 30 passes for location: Hong Kong

Rise time Rise Azimuth (degrees) Set time Set Azimuth (degrees) Duration Max altitude (degrees)

No matching passes for this satellites